Flag for Brazil Weather past 2 weeks in Londrina, Paraná, Brazil

Now
84 °F

Scattered clouds.


Feels Like: 88 °F
Forecast: N/A
Wind: 6 mph from Northeast

Location: Londrina Aeroporto

Current Time: Apr 19, 2015 at 6:17:41 PM

Latest Report: Apr 19, 2015 at 5:00 PM


Visibility: N/A

Pressure: 29.89 "Hg

Humidity: 62%

Dew point: 70 °F

Location of LondrinaLocation

Historic Weather in Londrina — Graph

°F

Londrina temperature yesterday

Maximum temperature yesterday: 81 °F (at 2:00 PM)
Minimum temperature yesterday: 70 °F (at 5:00 AM)
Average temperature yesterday: 74 °F

Past Weeks' High & Low Weather Summary

 TemperatureHumidityPressure
High88 °F (Apr 19, 4:00 PM)100% (Apr 5, 3:00 AM)30.18 "Hg (Apr 5, 3:00 AM)
Low61 °F (Apr 8, 2:00 AM)43% (Apr 13, 3:00 PM)29.77 "Hg (Apr 5, 4:00 PM)
Average74 °F73%30.01 "Hg
* Reported Apr 4 5:00 PM — Apr 19 5:00 PM, Londrina, Weather by CustomWeather, © 2015

Note: Actual official high and low records may vary slightly from our data, if they occured in-between our weather recording intervals... More about our weather records

Advertising

Londrina weather history for previous 24 hours

 ConditionsComfort  
Time TempWeatherWind HumidityBarometerVisibility
5:00 PM
Sun, Apr 19
84 °FScattered clouds.6 mph62%29.89 "HgN/A
4:00 PM88 °FScattered clouds.5 mph55%29.89 "HgN/A
3:00 PM84 °FScattered clouds.6 mph66%29.89 "HgN/A
2:00 PM84 °FScattered clouds.8 mph66%29.92 "HgN/A
1:00 PM82 °FScattered clouds.7 mph74%29.95 "HgN/A
12:00 PM81 °FScattered clouds.8 mph74%30.01 "HgN/A
11:00 AM79 °FScattered clouds.7 mph79%30.01 "HgN/A
10:00 AM77 °FScattered clouds.5 mph79%30.01 "HgN/A
9:00 AM73 °FScattered clouds.3 mph89%29.98 "HgN/A
8:00 AM73 °FLight rain. Scattered clouds.1 mph83%29.98 "HgN/A
7:00 AM72 °FScattered clouds.1 mph88%29.95 "HgN/A
6:00 AM72 °FLight rain. Broken clouds.5 mph88%29.92 "Hg5 mi
5:00 AM72 °FPassing clouds.2 mph88%29.92 "HgN/A
4:00 AM72 °FPassing clouds.2 mph88%29.92 "HgN/A
3:00 AM72 °FPassing clouds.2 mph88%29.92 "HgN/A
2:00 AM72 °FPassing clouds.2 mph94%29.92 "HgN/A
1:00 AM72 °FPassing clouds.2 mph94%29.95 "HgN/A
12:00 AM72 °FClear.2 mph94%29.98 "Hg10 mi
11:00 PM
Sat, Apr 18
73 °FClear.5 mph89%29.98 "Hg10 mi
10:00 PM73 °FClear.2 mph89%29.98 "Hg10 mi
9:00 PM75 °FClear.1 mph83%29.98 "Hg10 mi
8:00 PM75 °FClear.2 mph83%29.95 "Hg10 mi
7:00 PM75 °FClear.1 mph78%29.95 "Hg10 mi
6:00 PM75 °FClear.5 mph83%29.92 "Hg10 mi
Weather by CustomWeather, © 2015

See weather overviewHow to use our weather pages